[[{"header":{"parameterUnit":"m.s-1","parameterCategory":1,"la1":30.2991,"la2":30.254,"lo1":-89.0895,"lo2":-89.0444,"dy":0.0017,"dx":0.0017,"nx":28,"ny":28,"refTime":"2024-03-25T21:00:00:Z","depth":0,"parameterNumber":2,"parameterNumberName":"U-component_of_WINDS"},"data":[0,0,0,0,0,0,0,0,0,0,0,0,0,0,0,0,0,0,0,0,0,0,0,0,0,0,0,0,0,0,0,0,0,0,0,0,0,0,0,0,0,0,0,0,0,0,0,0,0,0,0,0,0,0,0,0,0,0,-3.5668,-3.5666,0,-3.5449,-3.5447,-3.5444,-3.5283,-3.5281,-3.528,-3.5279,-3.5044,-3.5039,-3.5034,0,0,0,0,0,0,0,0,0,0,0,0,0,-3.5933,-3.5929,-3.5668,-3.5666,-3.5663,-3.545,-3.5447,-3.5444,-3.5283,-3.5281,-3.528,-3.5278,-3.5046,-3.504,-3.5034,0,0,0,0,0,0,0,0,0,0,0,0,0,-3.5777,-3.5928,-3.5669,-3.5557,-3.5545,-3.545,-3.5446,-3.5443,-3.5283,-3.5281,-3.5279,-3.5277,-3.5048,-3.504,-3.5033,-3.5029,0,0,-3.501,-3.5007,0,0,0,0,0,0,0,0,-3.5786,-3.5767,-3.5576,-3.5565,-3.5551,-3.5391,-3.5454,-3.5304,-3.5284,-3.5382,-3.5279,-3.5276,-3.5161,-3.5144,-3.5107,-3.5018,-3.5008,-3.501,-3.5005,-3.5002,-3.5,0,0,0,0,0,0,0,-3.5797,-3.5775,-3.5581,-3.5574,-3.5558,-3.5513,-3.5489,-3.5425,-3.5285,-3.5374,-3.5361,-3.5338,-3.5153,-3.5115,-3.51,-3.5004,-3.501,-3.5003,-3.4999,-3.4996,-3.4893,-3.4894,0,0,0,0,0,0,-3.5827,-3.5786,-3.5588,-3.5575,-3.5666,-3.551,-3.5483,-3.5444,-3.5286,-3.526,-3.534,-3.5331,-3.5128,-3.5109,-3.5091,-3.5072,-3.5002,-3.4995,-3.4991,-3.4891,-3.4893,-3.4895,0,0,0,0,0,0,-3.5833,-3.5811,-3.5597,-3.5677,-3.5646,-3.5508,-3.5466,-3.5441,-3.5402,-3.5261,-3.5234,-3.5327,-3.5126,-3.5102,-3.5045,-3.5061,-3.4992,-3.4985,-3.4889,-3.4891,-3.4894,-3.5035,0,0,0,0,0,0,-3.5841,-3.5814,-3.5815,-3.5678,-3.5643,-3.5559,-3.5467,-3.5438,-3.5391,-3.5378,-3.5241,-3.5217,-3.5122,-3.5057,-3.5037,-3.505,-3.4979,-3.4887,-3.489,-3.4893,-3.5029,-3.5042,-3.5054,0,0,0,0,0,-3.5851,-3.5862,-3.5816,-3.5793,-3.5641,-3.556,-3.5539,-3.5434,-3.5394,-3.539,-3.5298,-3.5221,-3.5063,-3.5052,-3.5029,-3.504,-3.4885,-3.4889,-3.4893,-3.5023,-3.504,-3.5054,0,0,0,0,0,0,-3.6002,-3.5842,-3.5789,-3.5757,-3.5674,-3.5533,-3.5527,-3.5456,-3.538,-3.537,-3.5239,-3.5209,-3.5165,-3.5096,-3.5087,-3.5023,-3.4964,-3.4963,-3.507,-3.5085,-3.5098,-3.5115,-3.4973,0,0,0,0,0,-3.6032,-3.5984,-3.5845,-3.5829,-3.5791,-3.5666,-3.5627,-3.5553,-3.546,-3.5423,-3.5327,-3.5236,-3.5165,-3.5121,-3.5049,-3.5017,-3.4982,-3.5012,-3.5026,-3.5037,-3.5038,-3.501,-3.5021,-3.4907,-3.4907,-3.4907,0,0,-3.6092,-3.5999,-3.5976,-3.5857,-3.5784,-3.5732,-3.5638,-3.5588,-3.5547,-3.5414,-3.5355,-3.528,-3.517,-3.5125,-3.51,-3.5066,-3.5061,-3.5042,-3.5052,-3.5046,-3.5015,-3.5026,-3.5036,-3.491,-3.491,-3.4909,0,0,-3.6175,-3.6102,-3.6079,-3.6008,-3.5899,-3.5815,-3.581,-3.5679,-3.5625,-3.5564,-3.5462,-3.5408,-3.5291,-3.5215,-3.5161,-3.521,-3.5134,-3.519,-3.5257,-3.5232,-3.5241,-3.5248,-3.5262,-3.5269,-3.5191,-3.5191,-3.5191,0,-3.6263,-3.6186,-3.6076,-3.6031,-3.5979,-3.5859,-3.5831,-3.5766,-3.5638,-3.5602,-3.5567,-3.5414,-3.5331,-3.5264,-3.5276,-3.5237,-3.5222,-3.5205,-3.5249,-3.5255,-3.526,-3.5271,-3.5277,-3.5198,-3.5198,-3.5197,-3.5196,0,-3.6297,-3.6244,-3.6238,-3.6119,-3.6066,-3.6031,-3.5911,-3.587,-3.5798,-3.5717,-3.5652,-3.5548,-3.545,-3.5429,-3.5359,-3.535,-3.5331,-3.5275,-3.5212,-3.528,-3.5288,-3.5292,-3.5209,-3.5206,-3.5204,-3.5202,0,0,-3.6471,-3.629,-3.629,-3.6232,-3.6101,-3.6055,-3.6011,-3.5918,-3.5883,-3.5797,-3.5754,-3.5655,-3.56,-3.5539,-3.5458,-3.5436,-3.5476,-3.538,-3.5375,-3.5399,-3.5454,-3.5497,-3.5505,-3.5425,-3.5426,-3.5426,-3.5463,0,-3.6532,-3.6452,-3.6349,-3.6301,-3.6247,-3.613,-3.609,-3.6002,-3.5924,-3.5863,-3.5773,-3.5704,-3.5639,-3.5601,-3.5574,-3.5478,-3.5485,-3.5474,-3.5379,-3.5377,-3.5409,-3.551,-3.5556,-3.5596,-3.5466,-3.5466,-3.5467,0,-3.6594,-3.6516,-3.6464,-3.6333,-3.6306,-3.6274,-3.6177,-3.6122,-3.6018,-3.5961,-3.5892,-3.5804,-3.5745,-3.569,-3.5604,-3.5599,-3.5553,-3.5499,-3.5498,-3.5483,-3.5426,-3.5496,-3.5606,-3.5612,-3.5471,-3.5471,-3.5471,0,-3.6723,-3.6604,-3.6556,-3.6511,-3.6358,-3.6337,-3.6272,-3.6165,-3.6114,-3.6028,-3.5992,-3.59,-3.5848,-3.5776,-3.5663,-3.5635,-3.5588,-3.5524,-3.5535,-3.5538,-3.553,-3.5532,-3.5633,-3.5505,-3.5504,-3.5504,-3.5504,0,-3.6801,-3.6772,-3.6612,-3.6583,-3.6545,-3.6424,-3.6389,-3.6312,-3.6217,-3.6166,-3.6057,-3.6011,-3.5866,-3.5801,-3.5712,-3.5651,-3.5629,-3.5578,-3.5555,-3.5587,-3.5594,-3.5555,-3.5548,-3.5506,-3.5505,-3.5505,-3.5505,0,-3.6939,-3.6831,-3.677,-3.663,-3.6593,-3.6572,-3.6449,-3.6412,-3.6326,-3.6263,-3.6241,-3.6104,-3.6021,-3.5902,-3.5782,-3.5721,-3.5673,-3.5636,-3.571,-3.5695,-3.5711,-3.5711,-3.5789,-3.5791,-3.5666,-3.5667,-3.5668,0,-3.6995,-3.6971,-3.6828,-3.6788,-3.6727,-3.6663,-3.661,-3.6488,-3.6437,-3.6313,-3.6291,-3.62,-3.6121,-3.5992,-3.5879,-3.5785,-3.5743,-3.5777,-3.5728,-3.576,-3.5739,-3.5742,-3.5736,-3.5788,-3.5791,-3.5792,-3.5794,0,-3.7106,-3.7053,-3.6983,-3.6894,-3.6835,-3.6758,-3.6675,-3.6646,-3.6505,-3.6452,-3.6367,-3.6306,-3.6183,-3.6092,-3.5982,-3.5908,-3.5825,-3.581,-3.5806,-3.5839,-3.5881,-3.5855,-3.5739,-3.5808,-3.5807,-3.5806,-3.5805,-3.5804,-3.7202,-3.7173,-3.7068,-3.6992,-3.6917,-3.6841,-3.68,-3.6708,-3.6637,-3.653,-3.646,-3.6378,-3.6266,-3.6111,-3.604,-3.597,-3.5936,-3.5933,-3.5931,-3.5932,-3.5942,-3.5894,-3.595,-3.5949,-3.5948,-3.5948,-3.5947,0,-3.7304,-3.723,-3.7162,-3.705,-3.699,-3.6921,-3.6824,-3.6776,-3.6706,-3.6612,-3.6536,-3.6435,-3.6345,-3.6224,-3.6124,-3.609,-3.6049,-3.6068,-3.6068,-3.6051,-3.5979,-3.5991,-3.6102,-3.6102,-3.6102,-3.6102,-3.6102,-3.6102,-3.7351,-3.7297,-3.7231,-3.7136,-3.706,-3.6982,-3.6932,-3.6858,-3.6782,-3.6676,-3.6602,-3.6525,-3.6417,-3.6307,-3.6219,-3.6185,-3.6152,-3.6181,-3.6135,-3.6071,-3.6057,-3.6043,-3.6053,-3.6176,-3.6176,-3.6212,-3.6212,-3.6213]},{"header":{"parameterUnit":"m.s-1","parameterCategory":1,"la1":30.2991,"la2":30.254,"lo1":-89.0895,"lo2":-89.0444,"dy":0.0017,"dx":0.0017,"nx":28,"ny":28,"refTime":"2024-03-25T21:00:00:Z","depth":0,"parameterNumber":3,"parameterNumberName":"V-component_of_WINDS"},"data":[0,0,0,0,0,0,0,0,0,0,0,0,0,0,0,0,0,0,0,0,0,0,0,0,0,0,0,0,0,0,0,0,0,0,0,0,0,0,0,0,0,0,0,0,0,0,0,0,0,0,0,0,0,0,0,0,0,0,-3.0204,-3.0209,0,-3.0655,-3.066,-3.0665,-3.0664,-3.0658,-3.0652,-3.0646,-3.113,-3.1148,-3.1167,0,0,0,0,0,0,0,0,0,0,0,0,0,-2.9366,-2.9381,-3.0203,-3.0209,-3.0215,-3.0654,-3.066,-3.0666,-3.0665,-3.0658,-3.0651,-3.0644,-3.1124,-3.1146,-3.1168,0,0,0,0,0,0,0,0,0,0,0,0,0,-2.9765,-2.9386,-3.0202,-3.0266,-3.0276,-3.0653,-3.066,-3.0668,-3.0667,-3.0658,-3.0649,-3.064,-3.1117,-3.1144,-3.1171,-3.152,0,0,-3.1256,-3.1268,0,0,0,0,0,0,0,0,-2.9742,-2.9796,-3.0251,-3.0263,-3.0275,-3.0593,-3.0542,-3.0955,-3.0669,-3.0519,-3.0646,-3.0636,-3.0961,-3.1,-3.1105,-3.1543,-3.1564,-3.1258,-3.1275,-3.1287,-3.1295,0,0,0,0,0,0,0,-2.9715,-2.9777,-3.0383,-3.0258,-3.0273,-3.0281,-3.0328,-3.062,-3.0785,-3.0532,-3.0532,-3.0585,-3.0965,-3.1079,-3.1117,-3.1571,-3.1257,-3.1282,-3.1299,-3.131,-3.2329,-3.2339,0,0,0,0,0,0,-2.9671,-2.9753,-3.0368,-3.0396,-2.998,-3.0303,-3.0355,-3.0501,-3.0782,-3.0816,-3.0592,-3.0583,-3.1036,-3.1084,-3.1134,-3.1569,-3.1287,-3.1312,-3.1328,-3.2319,-3.2332,-3.2343,0,0,0,0,0,0,-2.9653,-2.9725,-3.035,-3.0075,-3.0155,-3.0327,-3.049,-3.0514,-3.0627,-3.0827,-3.0859,-3.0676,-3.1031,-3.1095,-3.1425,-3.1585,-3.1325,-3.135,-3.2306,-3.2323,-3.2337,-3.2436,0,0,0,0,0,0,-2.9628,-2.9719,-2.9847,-3.0078,-3.017,-3.0627,-3.05,-3.0529,-3.0672,-3.0665,-3.0914,-3.0947,-3.1029,-3.1384,-3.1453,-3.1618,-3.1372,-3.2293,-3.2314,-3.2332,-3.2419,-3.2453,-3.2482,0,0,0,0,0,-2.9599,-2.9859,-2.9853,-2.9928,-3.0332,-3.0635,-3.0689,-3.0771,-3.0685,-3.082,-3.095,-3.0939,-3.1555,-3.1418,-3.1495,-3.1672,-3.2284,-3.2308,-3.2331,-3.2405,-3.2446,-3.2481,0,0,0,0,0,0,-2.9649,-2.9891,-2.9887,-3.0228,-3.0411,-3.0634,-3.0807,-3.0811,-3.1027,-3.1012,-3.1111,-3.1168,-3.15,-3.1618,-3.1461,-3.203,-3.191,-3.195,-3.194,-3.1981,-3.2012,-3.198,-3.1395,0,0,0,0,0,-2.9698,-2.9917,-3.0119,-3.0402,-3.0493,-3.0634,-3.0769,-3.0816,-3.1013,-3.1092,-3.1245,-3.1442,-3.1681,-3.1837,-3.2067,-3.2435,-3.2495,-3.2595,-3.2626,-3.2651,-3.2687,-3.2901,-3.2951,-3.2421,-3.242,-3.242,0,0,-2.9806,-2.9965,-3.0098,-3.0416,-3.0563,-3.0796,-3.0699,-3.0948,-3.1125,-3.1132,-3.1453,-3.1573,-3.1801,-3.2153,-3.2317,-3.2263,-3.2847,-3.2681,-3.2699,-3.2723,-3.2931,-3.2981,-3.3025,-3.2437,-3.2434,-3.2431,0,0,-3.0122,-3.0259,-3.0513,-3.0662,-3.0884,-3.0977,-3.1038,-3.1263,-3.1342,-3.1664,-3.1677,-3.1892,-3.2298,-3.2463,-3.2599,-3.2983,-3.2986,-3.3055,-3.3222,-3.3429,-3.3471,-3.3509,-3.3655,-3.3705,-3.3089,-3.3089,-3.309,0,-3.0229,-3.0572,-3.0646,-3.0897,-3.1041,-3.1051,-3.1316,-3.1459,-3.1748,-3.1852,-3.1785,-3.23,-3.2453,-3.2849,-3.2943,-3.305,-3.3132,-3.303,-3.3457,-3.3496,-3.3533,-3.3674,-3.3727,-3.3097,-3.3096,-3.3095,-3.3095,0,-3.0699,-3.0938,-3.1118,-3.1391,-3.1555,-3.1812,-3.1933,-3.2092,-3.2126,-3.2229,-3.2563,-3.2747,-3.3019,-3.3115,-3.3152,-3.352,-3.3481,-3.3434,-3.3318,-3.359,-3.3724,-3.3778,-3.3108,-3.3105,-3.3103,-3.3101,0,0,-3.106,-3.1371,-3.1437,-3.1565,-3.1813,-3.2004,-3.2265,-3.2524,-3.2663,-3.2863,-3.3092,-3.3437,-3.3398,-3.3553,-3.3609,-3.379,-3.4094,-3.3724,-3.3731,-3.3794,-3.4523,-3.4561,-3.4621,-3.4094,-3.4104,-3.4113,-3.4506,0,-3.1408,-3.1864,-3.194,-3.2345,-3.2573,-3.2588,-3.2818,-3.3,-3.3104,-3.332,-3.3438,-3.3685,-3.3608,-3.3704,-3.3882,-3.4018,-3.4243,-3.399,-3.4319,-3.433,-3.4268,-3.469,-3.4731,-3.5093,-3.4558,-3.4567,-3.4573,0,-3.1875,-3.2083,-3.2508,-3.2732,-3.2831,-3.3034,-3.3283,-3.3484,-3.3695,-3.376,-3.3934,-3.3971,-3.4254,-3.4119,-3.4516,-3.4342,-3.4481,-3.4569,-3.4586,-3.4626,-3.4473,-3.475,-3.5209,-3.5267,-3.4655,-3.4649,-3.4643,0,-3.2107,-3.2493,-3.28,-3.2908,-3.3173,-3.3318,-3.3437,-3.3638,-3.3792,-3.4011,-3.4114,-3.4365,-3.4505,-3.4703,-3.4811,-3.4701,-3.5205,-3.5076,-3.5275,-3.5273,-3.5386,-3.5379,-3.5882,-3.5462,-3.5461,-3.546,-3.5459,0,-3.2492,-3.2754,-3.2908,-3.3098,-3.3396,-3.3484,-3.3779,-3.3896,-3.4076,-3.4296,-3.4326,-3.4534,-3.4658,-3.4888,-3.4974,-3.5296,-3.5357,-3.5424,-3.5446,-3.5427,-3.5419,-3.5525,-3.5506,-3.5474,-3.5471,-3.5468,-3.5466,0,-3.2803,-3.2915,-3.3252,-3.3475,-3.3538,-3.3749,-3.3945,-3.4136,-3.4238,-3.4518,-3.4589,-3.4755,-3.5027,-3.5151,-3.5488,-3.5547,-3.5916,-3.5916,-3.5843,-3.5853,-3.6048,-3.6031,-3.6644,-3.6733,-3.6245,-3.6249,-3.6253,0,-3.3044,-3.3246,-3.3491,-3.3637,-3.3759,-3.3994,-3.4151,-3.4248,-3.4412,-3.467,-3.4833,-3.5103,-3.5326,-3.5761,-3.5918,-3.6178,-3.619,-3.6387,-3.623,-3.6207,-3.6205,-3.6195,-3.6221,-3.6418,-3.6422,-3.6426,-3.6429,0,-3.3465,-3.3511,-3.3731,-3.3975,-3.4159,-3.4357,-3.4551,-3.4671,-3.4801,-3.4985,-3.526,-3.5432,-3.5776,-3.6049,-3.632,-3.6453,-3.647,-3.6476,-3.6538,-3.6525,-3.6478,-3.6516,-3.593,-3.6464,-3.646,-3.6458,-3.6456,-3.6455,-3.3756,-3.3939,-3.4141,-3.4389,-3.4544,-3.4726,-3.4917,-3.5044,-3.5272,-3.5556,-3.5601,-3.5897,-3.6112,-3.6477,-3.662,-3.6859,-3.6814,-3.6901,-3.6925,-3.6947,-3.6963,-3.6432,-3.6908,-3.6907,-3.6907,-3.6906,-3.6905,0,-3.4185,-3.4316,-3.4542,-3.4812,-3.5009,-3.4996,-3.5213,-3.5382,-3.5639,-3.5834,-3.6052,-3.6374,-3.664,-3.6818,-3.709,-3.7248,-3.7263,-3.7318,-3.7312,-3.7345,-3.6983,-3.6906,-3.7302,-3.7302,-3.7302,-3.7302,-3.7301,-3.7301,-3.4432,-3.4745,-3.4816,-3.521,-3.5341,-3.5627,-3.5753,-3.5925,-3.6082,-3.6437,-3.6656,-3.6767,-3.696,-3.7247,-3.7495,-3.7541,-3.7645,-3.7702,-3.7749,-3.7409,-3.7368,-3.7329,-3.7258,-3.7721,-3.7722,-3.8092,-3.8095,-3.8098]}]]